Flag for Canada Weather past 2 weeks in Richmond Hill, Ontario, Canada

Now
59 °F

Passing clouds.


Feels Like: 60 °F
Forecast: 58 / 80 °F
Wind: 3 mph from Northwest

Location: Toronto Buttonville

Current Time: May 29, 2015 at 4:23:21 AM

Latest Report: May 29, 2015 at 3:00 AM


Visibility: 15 mi

Pressure: 30.24 "Hg

Humidity: 77%

Dew point: 52 °F

Location of Richmond HillLocation

Historic Weather in Richmond Hill — Graph

°F

Richmond Hill temperature yesterday

Maximum temperature yesterday: 77 °F (at 3:00 PM)
Minimum temperature yesterday: 57 °F (at 5:47 AM)
Average temperature yesterday: 68 °F

Past Weeks' High & Low Weather Summary

 TemperatureHumidityPressure
High82 °F (May 18, 2:00 PM)88% (May 16, 5:00 AM)30.49 "Hg (May 16, 5:00 AM)
Low37 °F (May 20, 6:00 AM)19% (May 23, 4:00 PM)29.83 "Hg (May 21, 5:00 PM)
Average62 °F55%30.09 "Hg
* Reported May 14 3:00 AM — May 29 3:00 AM, Richmond Hill, Weather by CustomWeather, © 2015

Note: Actual official high and low records may vary slightly from our data, if they occured in-between our weather recording intervals... More about our weather records

Advertising

Richmond Hill weather history for previous 24 hours

 ConditionsComfort  
Time TempWeatherWind HumidityBarometerVisibility
3:00 AM
Fri, May 29
59 °FPassing clouds.3 mph77%30.24 "Hg15 mi
2:00 AM61 °FPassing clouds.2 mph77%30.25 "Hg15 mi
1:00 AM64 °FPassing clouds.2 mph68%30.25 "Hg15 mi
12:00 AM66 °FClear.2 mph64%30.26 "Hg15 mi
11:00 PM
Thu, May 28
68 °FPassing clouds.3 mph60%30.27 "Hg15 mi
10:00 PM70 °FPassing clouds.6 mph57%30.25 "Hg15 mi
9:00 PM72 °FScattered clouds.5 mph53%30.24 "Hg15 mi
8:00 PM73 °FScattered clouds.6 mph50%30.24 "Hg15 mi
7:00 PM75 °FPassing clouds.10 mph44%30.23 "Hg15 mi
6:00 PM77 °FPassing clouds.10 mph44%30.21 "Hg15 mi
5:00 PM77 °FPassing clouds.8 mph44%30.22 "Hg15 mi
4:00 PM77 °FPassing clouds.8 mph42%30.23 "Hg15 mi
3:00 PM77 °FPassing clouds.12 mph42%30.24 "Hg15 mi
2:00 PM75 °FPassing clouds.13 mph44%30.24 "Hg15 mi
1:00 PM73 °FPassing clouds.13 mph47%30.24 "Hg15 mi
12:00 PM72 °FPassing clouds.13 mph50%30.23 "Hg14 mi
11:00 AM70 °FPassing clouds.15 mph53%30.21 "Hg15 mi
10:00 AM66 °FPassing clouds.15 mph64%30.19 "Hg15 mi
9:00 AM63 °FPassing clouds.21 mph68%30.18 "Hg15 mi
8:00 AM61 °FPassing clouds.18 mph77%30.16 "Hg15 mi
7:00 AM59 °FOvercast.14 mph82%30.13 "Hg15 mi
6:00 AM57 °FOvercast.13 mph88%30.09 "Hg15 mi
5:47 AM57 °FOvercast.14 mph88%30.07 "Hg15 mi
5:00 AM59 °FPassing clouds.13 mph77%30.05 "Hg15 mi
4:00 AM61 °FPassing clouds.6 mph72%30.03 "Hg15 mi
Weather by CustomWeather, © 2015

See weather overviewHow to use our weather pages